• In Uzbekistan
  • List of Countries
  • For 7 days
  • Water Temperature
  • Satellite Maps
  • Weather Map
  • Weather Widgets
  • user-avatar
    Login

    Hourly Weather Hrazdan

    Today, 6 December, Tuesday

    Time Temperature Precipitation Wind Pressure Humidity
    00:00 -4°C° 0.4 mm 1 mps 611 mmHg 90%
    01:00 -4°C° 0.4 mm 1 mps 611 mmHg 89%
    02:00 -6°C° 0.4 mm 1 mps 611 mmHg 89%
    03:00 -7°C° 0 mm 2 mps 611 mmHg 86%
    04:00 -7°C° 0.4 mm 2 mps 611 mmHg 85%
    05:00 -8°C° 0.4 mm 2 mps 611 mmHg 84%
    06:00 -9°C° 0.4 mm 2 mps 612 mmHg 83%
    07:00 -9°C° 0.2 mm 2 mps 612 mmHg 80%
    08:00 -9°C° 0.2 mm 2 mps 613 mmHg 77%
    09:00 -9°C° 0.2 mm 2 mps 613 mmHg 74%
    10:00 -8°C° 0 mm 2 mps 614 mmHg 70%
    11:00 -6°C° 0 mm 1 mps 614 mmHg 65%
    12:00 -6°C° 0 mm 1 mps 614 mmHg 60%
    13:00 -6°C° 0 mm 1 mps 614 mmHg 61%
    14:00 -6°C° 0 mm 1 mps 614 mmHg 62%
    15:00 -6°C° 0 mm 1 mps 614 mmHg 63%
    16:00 -8°C° 0 mm 1 mps 613 mmHg 67%
    17:00 -9°C° 0 mm 1 mps 613 mmHg 71%
    18:00 -11°C° 0 mm 1 mps 612 mmHg 76%
    19:00 -11°C° 0 mm 1 mps 612 mmHg 75%
    20:00 -11°C° 0 mm 1 mps 612 mmHg 74%
    21:00 -11°C° 0 mm 1 mps 613 mmHg 73%
    22:00 -11°C° 0 mm 1 mps 612 mmHg 74%
    23:00 -11°C° 0 mm 1 mps 612 mmHg 74%

    Tomorrow, 7 December, Wednesday

    Time Temperature Precipitation Wind Pressure Humidity
    00:00 -11°C° 0 mm 1 mps 612 mmHg 75%
    01:00 -11°C° 0 mm 1 mps 612 mmHg 75%
    02:00 -11°C° 0 mm 1 mps 612 mmHg 75%
    03:00 -12°C° 0 mm 1 mps 612 mmHg 75%
    04:00 -12°C° 0 mm 1 mps 611 mmHg 75%
    05:00 -12°C° 0 mm 1 mps 611 mmHg 74%
    06:00 -12°C° 0 mm 1 mps 611 mmHg 74%
    07:00 -10°C° 0 mm 1 mps 612 mmHg 69%
    08:00 -9°C° 0 mm 1 mps 612 mmHg 65%
    09:00 -7°C° 0 mm 1 mps 613 mmHg 61%
    10:00 -6°C° 0 mm 2 mps 613 mmHg 58%
    11:00 -5°C° 0 mm 2 mps 613 mmHg 55%
    12:00 -3°C° 0 mm 2 mps 613 mmHg 52%
    13:00 -2°C° 0 mm 1 mps 612 mmHg 54%
    14:00 -2°C° 0 mm 1 mps 612 mmHg 55%
    15:00 -2°C° 0 mm 1 mps 611 mmHg 57%
    16:00 -4°C° 0 mm 1 mps 611 mmHg 59%
    17:00 -7°C° 0 mm 1 mps 610 mmHg 61%
    18:00 -9°C° 0 mm 1 mps 609 mmHg 63%
    19:00 -9°C° 0 mm 1 mps 609 mmHg 63%
    20:00 -10°C° 0 mm 1 mps 609 mmHg 62%
    21:00 -10°C° 0 mm 1 mps 609 mmHg 62%
    22:00 -10°C° 0 mm 1 mps 609 mmHg 64%
    23:00 -10°C° 0 mm 1 mps 609 mmHg 65%

    Day after tomorrow, 8 December, Thursday

    Time Temperature Precipitation Wind Pressure Humidity
    00:00 -9°C° 0 mm 1 mps 609 mmHg 67%
    01:00 -9°C° 0 mm 1 mps 610 mmHg 68%
    02:00 -9°C° 0 mm 1 mps 610 mmHg 69%
    03:00 -9°C° 0 mm 1 mps 610 mmHg 71%
    04:00 -9°C° 0 mm 1 mps 611 mmHg 73%
    05:00 -9°C° 0 mm 1 mps 611 mmHg 74%
    06:00 -9°C° 0 mm 1 mps 611 mmHg 76%
    07:00 -8°C° 0 mm 1 mps 612 mmHg 73%
    08:00 -8°C° 0 mm 1 mps 613 mmHg 70%
    09:00 -7°C° 0 mm 1 mps 614 mmHg 67%
    10:00 -7°C° 0 mm 1 mps 615 mmHg 63%
    11:00 -7°C° 0 mm 2 mps 615 mmHg 60%
    12:00 -7°C° 0 mm 2 mps 615 mmHg 56%
    13:00 -7°C° 0 mm 2 mps 615 mmHg 57%
    14:00 -7°C° 0 mm 2 mps 614 mmHg 59%
    15:00 -6°C° 0 mm 1 mps 614 mmHg 60%
    16:00 -8°C° 0 mm 1 mps 614 mmHg 65%
    17:00 -9°C° 0 mm 1 mps 614 mmHg 70%
    18:00 -11°C° 0 mm 1 mps 614 mmHg 75%
    19:00 -11°C° 0 mm 1 mps 614 mmHg 76%
    20:00 -12°C° 0 mm 1 mps 614 mmHg 76%
    21:00 -12°C° 0 mm 1 mps 614 mmHg 77%
    22:00 -12°C° 0 mm 0 mps 613 mmHg 77%
    23:00 -13°C° 0 mm 0 mps 613 mmHg 77%

    9 December, Friday

    Time Temperature Precipitation Wind Pressure Humidity
    00:00 -13°C° 0 mm 0 mps 613 mmHg 76%
    01:00 -13°C° 0 mm 0 mps 613 mmHg 76%
    02:00 -14°C° 0 mm 1 mps 612 mmHg 76%
    03:00 -14°C° 0 mm 1 mps 612 mmHg 75%
    04:00 -14°C° 0 mm 1 mps 612 mmHg 75%
    05:00 -14°C° 0 mm 1 mps 612 mmHg 74%
    06:00 -14°C° 0 mm 1 mps 611 mmHg 73%
    07:00 -12°C° 0 mm 1 mps 612 mmHg 69%
    08:00 -11°C° 0 mm 1 mps 613 mmHg 65%
    09:00 -9°C° 0 mm 1 mps 614 mmHg 62%
    10:00 -8°C° 0 mm 1 mps 614 mmHg 58%
    11:00 -6°C° 0 mm 1 mps 613 mmHg 55%
    12:00 -4°C° 0 mm 1 mps 613 mmHg 52%
    13:00 -4°C° 0 mm 1 mps 613 mmHg 54%
    14:00 -4°C° 0 mm 1 mps 613 mmHg 56%
    15:00 -4°C° 0 mm 1 mps 612 mmHg 57%
    16:00 -7°C° 0 mm 1 mps 612 mmHg 61%
    17:00 -8°C° 0 mm 1 mps 611 mmHg 65%
    18:00 -10°C° 0 mm 1 mps 611 mmHg 69%
    19:00 -10°C° 0 mm 1 mps 611 mmHg 68%
    20:00 -9°C° 0 mm 1 mps 611 mmHg 68%
    21:00 -9°C° 0 mm 1 mps 611 mmHg 68%
    22:00 -9°C° 0 mm 1 mps 611 mmHg 69%
    23:00 -10°C° 0 mm 1 mps 610 mmHg 69%

    10 December, Saturday

    Time Temperature Precipitation Wind Pressure Humidity
    00:00 -10°C° 0 mm 1 mps 610 mmHg 70%
    01:00 -10°C° 0 mm 1 mps 610 mmHg 71%
    02:00 -9°C° 0 mm 1 mps 610 mmHg 71%
    03:00 -9°C° 0 mm 1 mps 609 mmHg 71%
    04:00 -9°C° 0 mm 1 mps 609 mmHg 72%
    05:00 -9°C° 0 mm 1 mps 608 mmHg 73%
    06:00 -10°C° 0 mm 2 mps 608 mmHg 73%
    07:00 -9°C° 0 mm 2 mps 608 mmHg 70%
    08:00 -7°C° 0 mm 2 mps 609 mmHg 67%
    09:00 -6°C° 0 mm 2 mps 609 mmHg 63%
    10:00 -5°C° 0 mm 2 mps 609 mmHg 61%
    11:00 -4°C° 0 mm 2 mps 609 mmHg 59%
    12:00 -2°C° 0 mm 2 mps 609 mmHg 57%
    13:00 -2°C° 0 mm 2 mps 608 mmHg 58%
    14:00 -3°C° 0 mm 2 mps 608 mmHg 60%
    15:00 -3°C° 0 mm 2 mps 608 mmHg 62%
    16:00 -4°C° 0 mm 2 mps 608 mmHg 66%
    17:00 -4°C° 0 mm 1 mps 608 mmHg 71%
    18:00 -6°C° 0 mm 1 mps 607 mmHg 75%
    19:00 -6°C° 0 mm 1 mps 608 mmHg 76%
    20:00 -6°C° 0 mm 1 mps 608 mmHg 77%
    21:00 -6°C° 0 mm 1 mps 608 mmHg 78%
    22:00 -6°C° 0 mm 1 mps 608 mmHg 80%
    23:00 -7°C° 0 mm 1 mps 608 mmHg 81%

    11 December, Sunday

    Time Temperature Precipitation Wind Pressure Humidity
    00:00 -7°C° 0 mm 1 mps 608 mmHg 83%
    01:00 -7°C° 0 mm 1 mps 608 mmHg 84%
    02:00 -7°C° 0 mm 1 mps 609 mmHg 84%
    03:00 -7°C° 0 mm 1 mps 609 mmHg 85%
    04:00 -7°C° 0 mm 1 mps 609 mmHg 85%
    05:00 -7°C° 0 mm 1 mps 609 mmHg 86%
    06:00 -7°C° 0 mm 1 mps 609 mmHg 86%
    07:00 -6°C° 0 mm 1 mps 609 mmHg 82%
    08:00 -4°C° 0 mm 1 mps 610 mmHg 79%
    09:00 -3°C° 0 mm 1 mps 611 mmHg 75%
    10:00 -2°C° 0 mm 1 mps 611 mmHg 71%
    11:00 -3°C° 0 mm 2 mps 611 mmHg 67%
    12:00 -1°C° 0 mm 2 mps 611 mmHg 63%
    13:00 -2°C° 0 mm 2 mps 611 mmHg 65%
    14:00 -2°C° 0 mm 2 mps 610 mmHg 66%
    15:00 -2°C° 0 mm 2 mps 610 mmHg 67%
    16:00 -1°C° 0 mm 1 mps 610 mmHg 71%
    17:00 -3°C° 0 mm 1 mps 610 mmHg 75%
    18:00 -4°C° 0 mm 1 mps 609 mmHg 80%
    19:00 -4°C° 0 mm 1 mps 609 mmHg 80%
    20:00 -4°C° 0 mm 1 mps 609 mmHg 80%
    21:00 -4°C° 0 mm 1 mps 609 mmHg 80%
    22:00 -4°C° 0 mm 1 mps 609 mmHg 81%
    23:00 -4°C° 0 mm 1 mps 609 mmHg 81%
    Show more